Zurück zum Katalog

SL-16 DEB

AktivLEO
NORAD 19125·DEBRIS·🇷🇺 Russia

Gestartet May 15, 1988 von Baikonur Cosmodrome

Loading…

Nächste Überflüge (nächste 24 Stunden)

TLE

AktuellSource: Space-Track

Epoche: Sep 14, 2026, 10:12 UTC

1 19125U 88039C   26257.42552229  .00000036  00000-0  67704-4 0  9996
2 19125  71.0326 168.3505 0177408 170.5510 189.9008 13.79702686928488

Verfolge SL-16 DEB in Echtzeit mit AllMySat

Download on the App Store